Location: Newark
(41.8083°N, 72.2500°W)
Time: 10:40:18
(UTC+00:00)

Vanguard 1 Rocket - Pass Details

Date: 09 December 2021
Orbit: 651 x 4224 km, 34.3° (Epoch: 15 January)

Event Time Altitude Azimuth Distance (km) Brightness Sun altitude
Exits shadow 07:23:28 50° 124° (SE) 2,817 9.7 -51.3°
Drops below altitude 10° 07:37:25 10° 96° (E) 6,355 12.1 -48.8°
Sets 07:43:30 0° 94° (E) 7,831 12.8 -47.7°
